Regional Weather Roundup
Issued by NWS

Home | Current Version | Previous Version | Text Only | Print | Product List | Glossary On
Versions: 1 2 3 4 5 6 7 8 9 10 11 12 13 14 15 16 17 18 19 20 21 22 23 24 25 26 27 28 29 30 31 32 33 34 35 36 37 38 39 40 41 42 43 44 45 46 47 48 49 50
808
ASUS43 KBIS 212310
RWRND

NORTH DAKOTA REGIONAL WEATHER ROUNDUP
NATIONAL WEATHER SERVICE BISMARCK ND
500 PM CST TUE NOV 21 2017

NOTE: "FAIR" INDICATES FEW OR NO CLOUDS BELOW 12,000 FEET WITH NO
SIGNIFICANT WEATHER AND/OR OBSTRUCTIONS TO VISIBILITY.


NDZ001>003-009>011-017-220000-
NORTHWEST NORTH DAKOTA

CITY           SKY/WX    TMP DP  RH WIND       PRES   REMARKS
WILLISTON      CLOUDY    14  -1  51 W5        30.31F WCI   6
MINOT          CLOUDY    14   4  64 W9        30.33R WCI   2
MINOT AFB      CLOUDY    11   2  68 NW9       30.32R WCI  -2
$$

NDZ018>021-031>035-040>046-220000-
SOUTHWEST NORTH DAKOTA

CITY           SKY/WX    TMP DP  RH WIND       PRES   REMARKS
BISMARCK       CLOUDY    21   7  54 NW6       30.36R WCI  13
DICKINSON      CLOUDY    18   0  45 NW3       30.25S
GARRISON         N/A     12   5  73 NW9       30.33R WCI   0
HETTINGER ARPT CLEAR     21   2  43 W6        30.28F WCI  13
$$

NDZ004>008-012>016-024-026-027-054-220000-
NORTHEAST NORTH DAKOTA

CITY           SKY/WX    TMP DP  RH WIND       PRES   REMARKS
GRAND FORKS    CLOUDY    18  12  77 W7        30.34R WCI   9
GRND FRKS AFB  CLOUDY    18  10  71 NW9       30.33R WCI   6
DEVILS LAKE    PTCLDY    15   8  73 W12       30.31F WCI   2
$$

NDZ022-023-025-028>030-036>039-047>053-220000-
SOUTHEAST NORTH DAKOTA

CITY           SKY/WX    TMP DP  RH WIND       PRES   REMARKS
FARGO          CLEAR     20  10  65 NW13      30.34S WCI   7
JAMESTOWN      CLOUDY    14   6  70 NW10      30.33S WCI   1
$$





USA.gov is the U.S. government's official web portal to all federal, state and local government web resources and services.